Theta_e
330 330 329 331 331 329 330 331 331 331 331 331 331 331 330 329 329 329 329 330 330 330 329 330 331 331 331 332 332 330 330 331 330 331 331 330 329 328 328 329 328 328 329 329 329 328 328 328 327 327 327 326 326 326 327 327 325 325 325 324 324 324 324
330 329 329 331 331 330 331 331 331 331 331 331 331 331 330 328 328 329 329 329 329 329 330 331 331 331 331 331 331 330 330 331 329 329 330 330 329 328 328 329 328 328 328 329 328 328 328 328 328 328 327 327 327 327 327 326 324 324 324 324 323 323 323
329 328 329 331 330 330 331 331 331 331 331 332 332 331 329 327 326 326 326 326 326 327 328 330 330 329 330 331 331 329 330 330 329 329 329 329 330 329 328 329 328 328 328 327 327 327 327 328 328 328 327 327 327 327 327 325 324 324 323 323 323 323 323
327 327 330 331 330 329 330 331 332 333 333 332 330 329 327 326 324 324 324 324 323 324 327 330 330 329 329 329 330 329 328 330 330 329 329 329 329 329 329 329 328 328 328 327 326 326 327 327 328 328 328 327 326 326 326 325 324 323 322 321 320 320 319
327 327 329 330 330 330 331 332 333 333 333 330 328 326 325 324 322 322 323 323 323 323 326 329 329 329 328 327 328 328 327 328 329 329 329 329 329 329 330 329 328 328 328 327 326 326 327 327 327 328 328 327 326 325 324 323 322 321 320 318 317 316 315
329 328 328 330 331 330 331 333 333 332 331 330 328 326 326 325 322 322 322 322 324 323 324 327 329 329 329 327 327 327 326 326 327 329 329 328 328 328 329 329 327 327 327 326 325 326 326 326 327 328 327 326 326 324 323 322 321 320 318 317 315 314 313
330 329 328 330 331 330 331 332 332 331 331 328 325 325 325 323 321 322 322 322 324 323 322 324 327 329 329 328 327 327 327 326 326 327 327 327 328 327 328 328 327 327 327 325 324 326 326 326 327 327 326 326 325 323 322 322 320 319 317 316 315 312 311
329 329 328 329 331 331 331 332 331 331 329 325 324 324 322 319 320 321 322 323 324 323 321 321 324 328 328 328 328 327 327 327 326 326 326 326 327 327 327 327 328 327 326 325 325 326 326 326 326 326 325 325 324 322 322 321 319 318 316 315 312 310 310
328 328 327 327 329 330 331 331 331 331 329 328 328 326 320 320 321 319 320 324 324 322 321 320 320 323 325 327 328 328 327 326 325 325 326 325 326 328 327 327 328 327 326 325 326 326 326 325 326 326 325 324 322 321 321 319 318 317 315 312 310 309 310
326 327 325 325 328 330 330 331 330 330 330 330 330 326 323 324 322 320 320 321 321 320 320 320 321 323 323 323 326 327 327 326 326 325 326 326 326 327 327 327 326 327 326 326 325 327 326 324 325 325 324 323 321 320 320 319 317 316 313 311 309 310 309
325 326 323 324 328 329 330 330 330 330 329 330 329 326 325 323 321 323 323 320 319 320 320 321 324 326 325 320 322 327 328 327 326 326 326 326 326 326 327 327 326 326 326 326 326 326 325 324 325 325 324 322 321 320 319 317 316 315 313 310 309 310 309
325 327 324 326 329 329 330 330 330 330 329 329 327 324 322 317 317 322 322 320 320 321 321 322 324 327 325 320 323 327 327 327 327 327 327 326 326 325 326 326 327 327 326 325 326 326 324 324 325 326 324 322 322 321 318 316 315 314 312 310 309 310 308
326 328 327 328 330 329 329 330 330 329 328 327 323 319 316 313 316 320 321 322 322 321 322 321 322 326 324 322 325 327 327 328 328 328 328 328 327 326 326 327 327 327 326 325 326 326 324 324 325 326 325 323 322 321 319 317 316 313 311 310 309 309 309
327 329 329 330 330 329 330 330 330 327 325 322 315 313 314 314 319 324 324 324 324 323 324 322 321 325 325 322 323 325 327 327 326 327 327 327 327 326 327 328 328 327 326 325 325 325 325 325 325 325 325 324 322 321 321 320 317 312 311 310 309 309 309
326 328 330 330 329 329 330 330 327 323 322 318 312 315 320 320 321 325 325 324 324 324 324 323 322 323 324 323 320 322 324 323 324 325 324 324 324 323 324 327 328 328 327 326 325 325 325 326 325 325 325 324 322 321 321 320 316 312 311 310 310 310 310
323 326 328 329 328 328 328 327 323 320 320 317 312 319 326 324 324 325 324 323 324 323 323 323 323 323 325 324 322 322 324 323 324 325 323 322 323 322 322 326 328 328 327 327 326 326 326 325 325 325 324 323 321 321 321 320 316 313 311 311 310 310 311
325 325 326 326 326 326 325 324 321 320 321 317 314 321 326 325 325 325 323 323 323 323 322 320 321 324 324 323 324 324 324 324 324 323 322 322 324 324 323 325 328 327 327 328 327 327 326 325 326 325 323 322 320 319 320 318 316 315 313 311 311 311 311
327 326 326 325 324 324 324 324 322 320 322 320 319 324 324 323 325 325 323 324 323 322 321 318 320 323 322 322 324 323 322 323 323 322 323 323 324 324 323 324 327 327 327 327 326 326 325 325 325 323 322 322 319 317 318 317 316 316 314 312 312 312 312
328 327 325 324 324 324 323 323 322 322 323 324 323 323 322 322 324 323 322 323 322 321 320 318 320 323 322 322 323 322 322 322 322 322 322 321 321 323 323 323 325 326 326 325 325 325 325 325 324 322 322 321 319 317 317 317 316 316 315 314 313 313 314
328 328 326 324 322 322 321 321 322 323 325 326 323 320 320 322 322 321 321 322 321 320 318 318 319 321 321 322 322 321 321 322 322 321 321 320 321 322 323 323 323 325 325 324 325 325 325 324 323 322 321 320 319 318 317 317 317 317 316 315 314 314 315
328 328 326 323 321 322 322 322 322 324 325 325 322 319 320 321 320 320 321 321 319 319 318 317 318 320 321 321 322 322 321 321 321 321 320 321 320 321 322 321 322 325 324 323 325 325 324 324 322 321 321 320 319 318 317 316 316 316 317 316 315 315 316
329 326 323 324 325 325 324 324 325 325 325 323 321 320 321 320 319 320 321 320 319 319 318 317 318 319 320 320 321 321 321 320 321 320 320 321 320 320 321 321 321 324 323 322 324 325 324 323 322 321 320 320 320 318 317 316 314 315 317 317 316 316 316
327 324 321 323 326 325 324 325 326 325 324 321 319 320 319 318 319 319 319 319 319 318 317 316 317 317 319 320 320 320 320 319 320 320 320 320 320 320 321 320 320 321 323 323 324 324 324 322 322 322 321 320 320 318 318 317 316 316 318 317 317 317 317
325 323 322 323 324 323 323 324 325 323 322 320 319 319 319 318 319 319 319 319 319 318 317 316 316 316 317 319 319 319 319 318 319 319 319 320 320 319 320 320 319 319 322 324 324 324 323 322 322 322 321 320 320 320 320 319 318 318 319 319 318 318 318
325 325 324 322 321 321 321 322 322 321 321 320 319 319 319 319 318 318 318 318 317 316 316 315 315 315 317 318 318 318 319 318 318 318 319 319 319 319 318 319 319 319 319 322 323 323 323 322 321 321 321 321 320 320 320 320 319 320 320 320 319 319 319
324 323 320 317 318 320 321 321 321 320 320 320 319 319 318 319 318 318 318 316 313 311 311 311 311 312 313 316 316 316 318 318 317 317 319 319 319 319 319 319 320 319 319 319 319 320 320 320 319 318 319 319 319 319 318 318 319 320 320 320 319 319 319
322 318 316 317 320 322 321 321 320 320 320 320 319 319 319 319 319 319 318 315 312 312 312 311 310 310 310 310 310 313 317 318 317 318 319 319 319 320 319 319 320 320 320 319 318 318 318 318 318 317 317 317 317 317 315 315 316 317 318 319 320 320 319
321 320 321 322 323 323 321 321 320 321 321 320 319 320 320 320 319 318 316 314 313 314 314 314 314 313 313 311 309 311 316 317 317 319 319 318 318 319 319 319 319 319 319 319 319 318 318 319 319 319 319 319 318 317 316 315 314 314 314 315 316 318 319
323 323 323 323 323 322 321 321 320 320 320 320 319 318 318 318 317 316 315 314 314 314 314 314 315 315 315 315 313 313 315 316 317 319 319 318 317 318 318 318 318 318 318 318 318 318 318 318 318 318 319 319 319 319 319 318 318 317 316 316 315 315 315
321 321 321 321 320 319 318 318 318 317 317 316 316 316 317 317 316 316 314 313 314 314 314 315 315 315 316 316 316 316 316 317 319 320 320 320 319 319 320 320 320 319 318 318 318 318 318 318 318 317 317 316 315 317 319 319 319 319 319 319 318 317 316
318 317 317 317 316 316 315 315 315 314 314 314 314 315 316 316 316 316 315 315 315 315 316 316 317 317 317 316 317 317 317 318 318 319 320 320 319 319 320 320 320 320 319 319 319 319 319 319 318 317 317 316 315 316 317 318 318 318 318 319 319 319 319
317 317 316 316 316 315 315 314 314 314 315 315 315 316 316 316 316 317 317 317 317 317 318 318 318 318 318 318 318 318 318 318 317 318 319 318 317 317 317 317 317 317 317 316 316 316 317 318 318 318 318 318 318 318 318 318 318 317 317 318 319 320 320
317 316 316 316 316 317 316 316 316 317 317 317 317 317 317 317 317 318 318 318 318 318 318 318 318 318 318 318 318 318 318 318 317 317 318 317 314 313 313 313 313 313 313 312 312 312 312 313 314 315 315 315 316 316 316 316 317 317 317 317 318 318 318
314 315 315 315 315 316 316 317 317 317 317 317 317 317 317 316 316 317 317 317 316 316 316 316 315 315 314 313 313 313 312 312 312 312 313 312 311 309 309 309 310 310 310 310 310 310 310 310 310 310 310 310 310 310 310 310 310 311 312 312 313 314 315
306 307 308 310 310 311 312 312 312 312 312 313 312 311 311 310 309 309 309 309 309 309 308 307 307 307 307 306 306 306 306 306 306 306 306 305 305 304 305 306 307 308 308 309 309 309 308 308 307 307 306 304 304 303 303 302 302 303 303 304 304 306 307
301 301 301 302 302 303 304 304 304 304 304 304 303 302 303 303 302 303 304 303 302 301 301 301 301 302 302 302 302 302 302 302 302 301 301 301 300 301 301 302 302 303 304 304 304 304 303 303 302 301 300 300 299 299 299 299 299 299 299 299 299 299 299
300 299 299 299 299 299 299 299 300 300 301 301 300 300 300 302 303 305 306 305 303 302 301 300 299 299 299 299 299 299 299 300 300 299 299 299 299 299 299 299 299 299 299 299 300 299 299 299 298 298 298 298 298 298 298 298 298 298 298 298 299 300 300
Wind_Speed
18 16 17 16 15 13 11 12 12 11 12 11 11 11 10 9 9 8 8 8 7 7 8 8 7 6 7 8 8 8 8 8 9 9 7 7 8 8 8 7 5 4 7 9 8 10 12 12 11 9 9 10 9 9 9 10 10 10 10 9 9 8 7
17 17 16 15 14 13 12 13 12 12 12 12 11 11 10 10 10 9 9 9 8 8 8 7 7 7 8 9 9 8 8 7 8 9 7 7 8 8 7 7 6 6 7 9 8 8 10 12 12 11 11 11 10 9 10 12 14 14 13 11 10 11 10
18 18 17 15 14 14 13 13 12 12 12 12 13 12 11 11 11 10 10 9 9 8 7 6 7 8 8 8 7 8 8 7 7 9 8 7 8 8 7 7 7 7 8 10 10 9 11 12 11 12 12 13 13 11 12 13 13 13 13 13 14 14 13
18 18 18 18 16 15 14 13 13 13 13 14 14 13 12 11 11 10 10 10 9 8 8 8 7 8 8 7 6 7 8 7 6 7 7 8 9 8 7 7 7 8 8 9 9 9 11 12 12 13 13 11 12 13 13 12 11 12 13 12 12 12 12
20 20 20 19 18 17 15 15 15 15 14 14 13 12 11 10 11 11 10 10 9 8 9 9 8 7 7 7 6 7 7 8 7 6 6 7 8 8 8 7 7 7 8 8 8 8 9 11 13 15 14 12 12 13 13 13 11 11 12 11 10 11 11
21 22 21 20 18 17 17 17 17 16 14 14 13 12 11 11 12 11 10 9 9 8 9 9 8 7 7 7 7 6 7 8 8 7 6 6 8 9 8 8 8 8 8 8 7 6 8 11 13 14 14 14 15 13 14 17 14 10 11 10 10 11 11
23 23 22 21 18 16 17 17 16 15 15 14 14 14 13 12 12 12 10 9 8 8 8 9 7 6 6 6 6 6 7 7 7 7 7 6 7 8 8 8 8 9 9 9 7 7 9 11 14 16 14 15 15 13 16 18 14 11 12 10 10 11 10
22 22 22 21 19 17 17 16 15 14 13 12 11 12 12 12 12 12 10 8 8 8 8 8 7 5 6 6 6 6 6 6 7 7 8 8 7 7 8 8 8 9 10 10 8 8 11 11 14 16 15 16 16 14 15 15 12 12 13 12 11 12 11
22 23 23 21 19 18 17 16 14 13 11 9 9 10 11 12 12 12 11 10 9 8 7 7 6 6 5 5 5 5 5 5 5 6 7 8 7 7 8 9 8 9 10 11 10 10 12 12 14 17 16 16 16 15 16 15 13 13 14 14 13 13 12
25 26 24 22 20 18 17 16 14 12 11 11 11 10 11 12 11 11 11 11 10 9 8 6 5 5 5 5 5 4 4 4 4 5 6 6 7 7 8 8 8 9 10 10 10 11 12 13 15 19 18 17 15 15 16 15 15 16 15 15 15 13 12
26 25 26 24 21 19 19 17 15 14 13 13 13 11 12 12 11 11 10 11 11 9 8 7 6 4 6 5 5 5 4 4 3 4 5 5 5 6 6 6 7 9 10 11 10 11 13 13 16 19 19 19 15 12 15 16 16 16 15 15 15 13 11
26 25 25 24 22 22 21 19 17 16 16 14 13 12 11 11 12 12 11 11 12 10 8 8 8 6 6 4 5 5 5 5 4 4 5 5 4 5 6 6 7 8 10 12 11 11 13 14 18 19 18 19 15 10 14 17 16 15 15 15 15 13 10
29 26 25 26 26 25 23 20 19 19 18 15 12 11 10 10 11 11 9 10 10 9 7 6 7 5 4 4 6 5 4 5 5 4 5 5 4 5 6 6 6 8 9 11 11 11 13 14 17 18 17 18 16 12 13 15 16 16 15 15 14 11 10
32 28 27 28 28 26 22 21 20 19 17 14 11 11 10 11 12 9 7 8 7 6 5 5 7 5 3 5 5 5 5 5 5 4 4 5 5 5 5 5 5 7 9 10 10 11 12 13 16 17 16 17 17 16 14 13 16 18 16 14 13 12 12
35 30 28 28 27 25 22 21 20 18 15 12 11 11 10 10 11 9 8 7 6 5 4 4 6 5 3 4 3 5 4 3 5 3 4 3 4 3 5 7 6 8 9 8 9 11 11 11 14 17 17 16 15 16 13 12 16 20 18 15 14 14 13
36 32 31 29 27 26 23 21 20 17 14 13 12 12 10 9 10 9 8 7 6 6 5 4 6 6 4 3 3 5 5 5 6 7 4 1 1 2 2 6 7 8 9 9 9 11 10 10 12 15 17 15 13 13 12 13 17 20 19 16 15 16 15
35 34 33 32 29 27 24 21 19 17 14 14 13 11 9 9 10 9 8 8 7 7 5 5 7 6 4 4 4 5 6 5 7 7 1 3 2 3 3 3 6 8 10 11 11 10 10 12 12 14 17 13 10 10 10 14 19 18 17 18 17 16 14
34 34 35 33 30 28 25 21 19 17 15 15 15 12 10 9 9 9 10 9 8 7 5 5 6 6 5 5 5 4 5 5 5 5 4 4 4 1 4 3 6 8 10 12 12 10 10 12 13 14 14 11 9 9 9 13 18 14 12 17 18 16 14
33 33 34 33 30 27 24 22 19 16 14 14 15 14 12 10 9 8 10 9 7 6 6 5 6 5 5 5 6 5 4 5 6 4 5 5 3 1 3 3 5 6 7 10 13 13 10 11 13 13 12 11 11 11 11 14 15 12 11 14 15 16 16
32 32 33 32 29 25 23 22 19 15 14 13 13 13 12 10 10 9 9 8 7 6 7 8 8 7 6 5 6 6 5 6 6 3 3 3 2 1 1 3 4 5 6 8 12 15 12 12 14 13 13 14 11 12 13 14 13 12 13 15 14 15 16
31 31 31 29 27 24 21 20 18 15 14 13 12 12 11 11 11 10 9 8 9 10 10 10 10 10 9 7 7 6 6 7 6 4 5 4 1 1 2 4 3 3 6 7 11 14 14 14 14 12 14 13 10 11 13 14 14 13 13 16 15 14 16
30 31 31 28 26 24 21 18 17 15 14 14 12 12 12 11 11 11 10 11 13 13 12 11 11 11 10 9 9 6 6 8 6 4 5 4 1 1 4 5 3 2 7 7 9 12 15 15 13 12 14 12 9 11 12 13 16 14 11 14 15 14 16
30 32 31 28 26 23 21 18 17 15 14 13 13 13 12 12 11 11 13 14 13 12 12 10 11 12 10 10 10 8 6 7 6 4 4 4 2 2 5 6 5 3 6 8 8 11 16 17 14 13 16 14 11 13 13 11 15 15 12 12 14 13 14
31 30 27 26 24 21 19 18 18 17 15 14 15 15 15 14 14 14 15 15 13 12 12 11 11 12 11 10 9 8 6 5 5 5 4 4 3 2 4 5 6 4 4 7 8 10 15 18 16 14 16 15 13 14 13 12 13 13 12 13 14 15 15
30 28 25 23 20 18 17 16 18 19 17 17 18 18 17 16 16 15 14 12 10 10 11 11 12 12 13 12 10 9 7 5 4 4 4 3 3 3 6 7 6 5 3 4 6 8 11 14 15 15 15 16 15 14 14 14 13 14 14 15 15 16 17
28 28 26 23 20 20 21 20 22 23 22 21 21 20 18 17 16 15 12 8 7 7 7 8 9 11 13 13 12 9 6 5 4 3 4 4 3 4 6 5 4 4 3 2 4 6 6 8 11 12 13 15 15 14 14 14 15 16 17 17 17 17 16
26 26 26 25 25 26 28 27 26 27 25 23 22 20 19 17 16 14 10 7 6 6 7 6 6 8 9 9 11 10 7 7 5 2 4 6 6 5 8 7 4 1 4 5 5 5 5 6 7 9 11 13 15 15 14 15 16 17 18 19 19 19 19
24 25 25 27 29 30 31 29 28 26 25 23 21 20 18 16 15 13 10 8 7 6 6 7 7 7 7 7 9 9 7 7 7 4 4 7 6 4 6 6 5 4 5 5 5 6 7 8 8 8 9 9 11 13 14 15 16 17 19 20 21 22 22
23 24 26 28 30 29 29 28 27 24 22 20 19 18 15 13 12 12 11 10 9 6 6 7 6 7 6 6 8 8 6 6 6 5 4 6 5 4 5 6 7 8 8 7 7 8 10 11 12 12 11 10 10 10 11 13 15 16 17 19 21 23 24
21 22 23 24 24 23 23 22 21 18 17 17 16 12 9 8 8 9 11 12 10 8 7 7 7 7 7 7 7 7 5 3 2 2 1 2 3 4 5 7 8 9 9 10 10 10 12 13 14 15 15 15 14 12 11 13 15 16 17 19 21 22 23
21 20 19 18 18 18 17 16 14 12 12 13 13 11 9 6 6 8 11 12 11 10 9 9 8 8 8 8 8 7 6 5 3 2 1 2 3 4 5 7 8 9 10 11 12 13 14 14 15 16 17 17 17 17 17 18 19 20 21 22 23 23 24
16 17 17 16 14 14 15 15 13 12 12 13 14 12 9 8 10 10 11 12 11 10 10 9 9 9 8 8 8 8 8 7 6 6 6 4 1 3 5 7 9 11 13 14 14 15 15 16 17 18 19 20 20 21 22 22 23 24 25 26 26 27 28
10 12 13 13 12 11 13 14 14 13 14 14 14 13 12 11 11 10 11 11 9 9 8 8 8 8 8 8 8 8 8 9 9 8 8 8 4 3 6 8 10 13 15 16 17 17 17 18 19 20 21 22 23 24 24 25 25 26 28 29 29 30 31
11 12 12 13 14 13 12 12 12 12 12 12 12 11 10 9 9 8 8 7 7 7 7 7 7 7 7 8 8 9 9 9 10 10 11 11 8 6 8 11 14 16 17 18 19 20 21 21 21 22 23 24 25 26 27 28 28 29 30 31 32 32 32
15 15 14 13 13 13 12 11 11 10 10 9 8 7 7 7 5 5 5 6 6 6 6 7 7 8 9 10 10 11 11 11 12 12 13 14 13 12 14 16 18 20 21 21 22 23 24 25 25 26 26 27 28 29 30 31 32 32 32 33 33 34 34
17 16 15 14 12 11 10 9 9 9 9 9 7 6 5 5 4 3 1 2 3 4 6 7 8 9 10 11 11 12 12 13 14 14 14 15 15 16 19 20 20 21 23 24 24 26 27 27 28 29 29 29 30 30 31 32 32 32 32 32 32 33 33
15 15 14 13 12 11 11 11 10 9 9 9 7 6 6 6 6 5 2 2 3 3 3 4 7 8 9 9 9 10 11 12 13 14 15 16 17 18 20 20 20 21 22 23 25 26 26 27 27 27 27 27 27 27 27 27 28 29 29 29 28 28 28
Wind_Direction
190 188 187 185 181 182 180 182 190 189 187 187 186 188 189 189 191 186 186 193 194 186 186 188 188 195 187 183 199 195 183 193 189 180 185 185 185 190 192 188 178 154 157 166 160 148 146 146 149 150 151 154 151 148 149 139 123 115 116 108 98 98 100
187 187 191 186 179 184 182 183 194 191 186 187 187 190 189 188 188 183 185 188 187 185 182 184 190 193 188 188 202 199 185 194 193 191 200 195 184 181 191 199 183 165 173 176 163 155 156 150 150 154 148 145 145 144 143 130 114 109 117 122 128 128 125
187 185 189 188 185 189 183 185 194 189 185 187 188 192 190 187 188 187 187 184 185 187 176 185 199 196 192 193 198 195 190 193 195 199 201 193 184 179 190 199 181 171 180 179 170 165 166 159 158 163 155 151 151 148 142 132 125 131 139 149 163 160 158
195 191 192 192 189 190 187 185 188 189 190 191 192 194 190 189 188 187 187 182 184 183 173 185 199 196 196 197 193 188 189 191 193 202 197 189 191 188 192 194 182 184 186 177 172 171 171 165 161 162 159 159 157 147 139 135 144 156 156 165 176 171 180
203 199 194 191 187 187 187 184 185 189 192 193 195 192 189 195 193 191 191 186 187 183 177 184 191 192 195 198 199 194 193 194 194 199 193 191 202 200 194 190 185 192 187 177 179 177 170 168 166 164 159 153 148 142 135 135 145 151 153 165 165 162 184
202 198 192 188 186 186 184 185 187 187 189 192 192 186 186 197 196 193 195 194 195 193 186 185 186 190 193 194 201 201 200 203 202 203 198 198 210 208 196 190 191 195 188 182 188 193 182 173 170 166 158 150 147 144 139 141 149 150 152 165 159 165 199
198 194 188 183 182 185 184 185 186 186 194 198 192 188 191 197 192 188 193 196 198 201 195 189 185 191 197 195 203 206 205 210 209 210 211 206 210 211 204 200 196 193 195 192 190 197 191 176 166 159 155 156 153 149 146 148 157 159 158 167 163 178 216
197 193 188 182 177 181 184 184 185 190 202 201 192 194 193 188 185 185 187 186 191 202 202 196 194 197 198 192 201 209 207 214 214 216 223 215 211 212 207 209 200 189 197 198 189 191 190 179 167 157 159 166 159 154 157 156 163 165 161 165 168 188 218
195 190 187 182 177 181 185 184 186 191 198 191 190 196 186 180 187 189 184 182 190 199 197 199 201 204 201 191 197 203 204 221 222 217 222 214 208 206 203 208 204 194 200 202 194 189 187 185 175 164 167 173 163 160 165 162 166 168 162 164 170 193 222
192 189 185 180 176 180 186 185 184 188 187 183 191 191 176 179 189 186 187 192 195 194 192 189 181 199 216 201 201 206 199 218 217 198 206 207 204 208 207 209 206 202 207 210 203 190 187 192 184 172 170 174 172 170 172 167 167 167 165 172 177 191 223
188 186 181 178 178 181 186 183 181 185 182 186 195 186 177 185 181 176 189 196 193 191 189 172 151 196 240 219 202 207 197 201 197 180 188 192 191 199 203 200 202 208 210 207 203 192 187 187 185 179 174 175 177 176 176 169 161 164 171 181 189 201 220
182 181 176 176 181 185 184 180 181 182 181 189 195 182 182 187 179 181 192 192 190 187 185 172 161 196 242 220 193 202 195 184 175 173 181 183 185 190 196 197 201 210 208 200 197 194 188 182 185 188 184 182 180 168 176 175 164 168 178 183 191 210 222
176 174 172 177 183 184 180 179 183 184 184 192 192 180 181 178 174 185 190 188 188 181 182 184 176 197 234 207 190 187 179 173 170 177 180 180 189 189 189 197 198 202 202 198 196 195 191 186 190 194 189 187 184 169 175 182 175 173 179 186 189 202 220
171 169 176 184 184 181 179 182 185 186 188 194 189 177 175 171 167 171 175 178 179 172 182 192 184 190 213 214 205 182 183 184 171 183 189 183 201 203 188 194 201 198 198 202 203 196 188 183 189 195 191 188 187 181 179 186 183 172 173 191 191 196 220
171 172 182 186 180 178 182 186 185 185 185 186 181 167 162 166 162 162 171 169 161 171 186 187 179 176 191 229 213 165 167 134 133 195 251 207 208 220 185 189 205 199 194 206 207 195 188 183 184 194 197 193 191 189 185 190 188 171 167 184 188 195 217
174 176 183 184 180 181 186 186 185 183 176 174 172 158 156 164 157 161 174 162 162 182 191 181 162 154 184 208 148 140 137 106 150 210 250 93 183 266 218 194 207 203 195 199 198 190 189 184 182 192 195 191 189 190 190 195 194 180 172 178 182 195 211
175 177 179 180 182 183 185 184 182 179 172 169 164 156 167 167 154 166 171 161 182 194 195 190 158 149 186 179 143 151 153 155 185 198 175 77 156 252 290 227 210 207 195 191 192 193 194 188 188 193 186 179 189 196 199 204 204 198 188 180 179 196 213
176 176 175 178 182 183 182 179 176 177 172 161 155 162 180 169 157 172 166 163 191 189 181 185 154 155 184 167 161 171 157 162 167 157 167 174 161 213 309 264 218 213 196 189 188 190 197 195 187 182 174 173 195 196 182 188 196 200 195 182 179 195 217
175 175 173 175 179 180 179 175 174 176 167 159 164 172 174 163 161 171 164 168 188 181 173 169 149 163 183 167 170 173 158 162 158 161 195 188 143 39 327 272 233 225 206 196 187 179 193 201 181 170 170 179 203 203 177 174 190 203 199 188 183 192 212
174 172 172 175 179 179 180 177 175 169 161 166 176 171 161 159 162 164 162 166 175 173 173 169 165 173 174 169 174 176 179 169 160 171 163 131 141 159 326 286 262 239 216 206 188 176 183 193 182 179 185 184 198 212 193 176 185 199 197 193 190 191 204
172 171 172 174 176 177 178 178 174 167 167 175 173 160 158 161 158 155 158 167 177 182 180 177 178 174 168 173 174 178 188 169 159 181 159 137 204 229 267 288 285 228 212 203 190 181 179 184 184 189 198 198 209 220 213 197 188 192 198 199 201 198 200
172 172 173 171 170 171 173 171 166 168 178 178 164 154 159 161 153 152 164 181 190 190 185 182 181 176 173 177 170 168 183 168 165 196 181 164 211 281 275 291 317 233 210 200 192 185 179 181 183 187 197 211 216 201 204 208 197 196 205 208 212 209 202
173 173 175 173 168 168 171 165 161 172 180 171 159 155 155 156 156 160 176 190 196 193 190 189 187 184 182 177 169 165 169 172 178 193 190 189 198 242 269 289 319 294 211 203 204 194 187 186 188 191 196 208 206 186 186 199 200 204 213 218 225 225 214
172 173 175 174 166 169 179 169 161 169 168 158 157 157 154 158 163 170 183 193 196 197 196 194 192 191 186 178 172 164 155 165 181 182 185 188 172 196 253 278 313 314 224 206 207 202 197 196 197 202 204 210 211 199 195 198 200 208 221 227 235 240 238
170 170 171 170 165 176 189 177 161 161 159 158 162 161 161 167 171 178 190 198 202 206 204 201 201 200 194 184 172 156 140 147 173 168 167 177 166 192 230 255 288 299 250 203 198 201 207 208 208 213 217 221 226 225 219 214 210 216 229 236 237 237 241
170 171 173 174 176 182 183 174 164 161 161 165 167 165 167 173 176 184 193 192 187 184 181 187 193 195 198 195 186 173 137 128 159 161 164 194 199 169 179 210 270 289 273 233 201 198 212 222 219 221 225 226 230 234 234 233 229 227 233 238 237 235 237
173 178 181 180 180 179 175 172 169 167 168 169 169 169 173 178 182 187 187 175 165 158 152 152 153 164 179 184 186 184 155 138 154 142 162 204 222 184 161 155 146 215 255 254 229 200 214 242 240 239 240 235 234 238 243 246 245 241 240 241 241 241 239
175 179 179 174 173 174 174 173 171 170 171 171 170 173 175 177 181 183 179 170 167 166 163 158 150 153 155 149 163 175 171 167 169 156 174 209 224 215 192 175 164 188 223 244 239 210 215 237 245 250 257 255 254 258 260 261 260 258 255 251 248 247 245
167 167 167 166 166 166 167 169 169 168 170 170 168 170 174 182 193 196 193 185 179 179 180 175 171 170 167 160 165 175 185 183 177 178 204 220 210 194 200 208 213 218 221 231 238 227 226 236 242 246 252 255 259 267 273 275 274 273 271 266 261 257 253
154 155 159 162 162 157 155 158 161 164 168 168 169 182 208 224 217 202 191 184 183 190 193 191 192 189 190 187 183 188 185 154 157 221 252 273 237 210 212 224 229 232 235 237 241 241 241 243 248 252 256 257 255 252 253 261 263 264 268 270 271 268 264
143 144 150 156 162 164 161 158 156 160 172 181 194 220 243 229 190 180 181 181 185 195 198 201 204 205 207 203 198 204 188 139 127 191 136 29 313 269 255 260 260 258 256 253 251 252 254 254 257 260 261 262 261 256 252 253 254 255 257 260 263 265 265
137 140 146 151 159 169 174 176 179 186 196 203 208 213 208 189 181 182 185 187 193 198 202 209 214 215 219 218 215 219 210 182 173 179 164 151 231 278 270 270 273 271 268 266 264 261 261 262 264 265 266 265 265 263 262 262 262 262 261 260 259 260 262
134 141 146 150 156 163 173 180 183 184 186 186 186 186 185 186 187 187 189 193 199 205 210 216 218 218 221 222 219 221 222 218 215 214 205 197 204 264 269 262 267 270 269 271 271 269 266 265 264 266 267 268 268 268 268 268 267 267 267 266 265 264 264
111 118 123 131 137 141 149 157 159 161 166 168 172 176 174 174 178 179 182 185 185 191 201 205 208 210 212 217 226 229 229 232 235 240 241 236 237 257 260 253 258 263 263 265 268 271 272 273 273 274 275 276 277 277 276 275 274 273 273 272 272 271 270
84 87 91 98 107 113 117 122 126 131 136 139 145 145 141 144 150 155 165 176 183 196 213 222 227 230 231 236 243 246 248 251 252 253 256 255 253 253 253 253 256 261 264 268 271 274 278 281 282 283 284 284 284 283 283 283 282 281 280 279 279 278 277
77 79 79 80 84 90 94 96 100 105 110 114 114 112 116 118 105 100 152 212 216 220 234 245 246 244 245 247 250 253 257 261 264 264 266 267 264 260 261 263 265 267 270 275 278 281 283 285 286 287 288 287 287 287 287 288 288 289 288 287 286 285 284
75 78 78 81 85 88 87 87 87 89 90 89 87 91 99 103 98 92 66 345 317 289 280 278 262 255 258 262 265 269 268 269 272 272 270 271 270 269 271 276 278 278 277 278 280 281 284 287 288 290 292 292 292 292 292 292 293 294 295 295 295 295 295